Flight Track Log - Related Links

Times and Time Zones

All times are in EDT time to prevent confusion due to time zone crossing. See the SWA2855 flight status page for this flight to view local times or setup timezone preferences in your user account.

Time Position Orientation Groundspeed Altitude Reporting Facility
EDT Latitude Longitude Course Direction KTS MPH feet Rate Location/Type
Fri 10:32:08 PM 39.4000 -119.7667 180° South 237 273 8,300  Level Northern Cal TRACON
Fri 10:33:08 PM 39.3167 -119.7667 180° South 299 344 10,800 2,441 Climbing Northern Cal TRACON
Fri 10:34:06 PM 39.2306 -119.7678 181° South 311 358 13,100 2,900 Climbing Oakland Center
Fri 10:35:08 PM 39.1261 -119.7625 178° South 360 414 16,600 3,073 Climbing Oakland Center
Fri 10:36:00 PM 38.9932 -119.6356 180° South  Level Estimated
Fri 10:36:09 PM 39.0203 -119.7583 178° South 379 436 19,400  Level Oakland Center
Fri 10:37:10 PM 38.9078 -119.7517 177° South 398 458 22,200 1,918 Climbing Oakland Center
Fri 10:38:11 PM 38.7911 -119.7464 178° South 414 476 23,300 1,820 Climbing Oakland Center
Fri 10:39:12 PM 38.6733 -119.7408 178° South 423 487 25,900 2,459 Climbing Oakland Center
Fri 10:40:13 PM 38.5269 -119.7344 178° South 436 502 28,300 1,967 Climbing Oakland Center
Fri 10:41:14 PM 38.4106 -119.7281 178° South 447 514 29,900 1,659 Climbing Oakland Center
Fri 10:42:16 PM 38.2797 -119.7225 178° South 461 531 31,700 2,000 Climbing Oakland Center
Fri 10:43:17 PM 38.1494 -119.7144 177° South 466 536 34,000 2,016 Climbing Oakland Center
Fri 10:44:18 PM 38.0233 -119.7094 178° South 458 527 35,800 1,525 Climbing Oakland Center
Fri 10:45:19 PM 37.8978 -119.7033 178° South 452 520 37,100 1,230 Climbing Oakland Center
Fri 10:46:20 PM 37.7689 -119.6986 178° South 458 527 38,300 934 Climbing Oakland Center
Fri 10:47:21 PM 37.6408 -119.6925 178° South 459 528 39,000 341 Climbing Oakland Center
Fri 10:48:23 PM 37.5125 -119.6864 178° South 460 529 39,000  Level Oakland Center
Fri 10:49:24 PM 37.3611 -119.6786 178° South 455 524 39,000 -49 Level Oakland Center
Fri 10:50:25 PM 37.2547 -119.6725 177° South 455 524 38,900 -49 Descending Oakland Center
Fri 10:51:26 PM 37.1042 -119.6675 178° South 452 520 38,900  Level Oakland Center
Fri 10:52:27 PM 36.9789 -119.6619 178° South 451 519 38,900  Level Oakland Center
Fri 10:53:28 PM 36.8547 -119.6558 178° South 447 514 38,900  Level Oakland Center
Fri 10:54:29 PM 36.7297 -119.6492 178° South 449 517 38,900  Level Oakland Center
Fri 10:55:30 PM 36.6047 -119.6444 178° South 448 516 38,900  Level Oakland Center
Fri 10:56:32 PM 36.4808 -119.6386 178° South 444 511 38,900  Level Oakland Center
Fri 10:57:33 PM 36.3561 -119.6319 178° South 446 513 38,900  Level Oakland Center
Fri 10:58:34 PM 36.2308 -119.6269 178° South 448 516 38,900  Level Oakland Center
Fri 10:59:35 PM 36.1069 -119.6208 178° South 446 513 38,900  Level Oakland Center
Fri 11:00:36 PM 35.9814 -119.6142 178° South 449 517 38,900  Level Oakland Center
Fri 11:01:37 PM 35.8575 -119.6197 182° South 445 512 38,900  Level Oakland Center
Fri 11:02:38 PM 35.7325 -119.6244 182° South 445 512 38,900  Level Oakland Center
Fri 11:03:40 PM 35.5833 -119.6303 182° South 445 512 38,900 -443 Level Oakland Center
Fri 11:04:40 PM 35.4583 -119.6344 182° South 444 511 38,000 -885 Descending Oakland Center
Fri 11:05:42 PM 35.3344 -119.6386 182° South 443 510 37,100 -878 Descending Oakland Center
Fri 11:06:43 PM 35.2133 -119.5925 163° South 471 542 36,200 -1,820 Descending Oakland Center
Fri 11:07:44 PM 35.1069 -119.5022 145° Southeast 466 536 33,400 -2,754 Descending Oakland Center
Fri 11:08:45 PM 34.9983 -119.4111 145° Southeast 471 542 30,600 -2,557 Descending Oakland Center
Fri 11:09:46 PM 34.8900 -119.3228 146° Southeast 470 541 28,200 -2,361 Descending Oakland Center
Fri 11:10:47 PM 34.7881 -119.2383 146° Southeast 459 528 25,800 -2,262 Descending Oakland Center
Fri 11:11:48 PM 34.6883 -119.1553 146° Southeast 446 513 23,600 -2,234 Descending Oakland Center
Fri 11:13:04 PM 34.5572 -119.0481 146° Southeast 417 480 20,700 -2,174 Descending Los Angeles Center
Fri 11:14:06 PM 34.4644 -118.9719 146° Southeast 402 463 18,600 -2,032 Descending Los Angeles Center
Fri 11:15:08 PM 34.3769 -118.8992 146° Southeast 380 437 16,500 -2,098 Descending Los Angeles Center
Fri 11:16:09 PM 34.2792 -118.8544 159° South 375 432 14,300 -1,415 Descending Los Angeles Center
Fri 11:17:11 PM 34.1853 -118.8203 163° South 352 405 13,600 -629 Descending Los Angeles Center
Fri 11:18:13 PM 34.1039 -118.7889 162° South 310 357 13,000 -968 Descending Los Angeles Center
Fri 11:19:15 PM 34.0353 -118.7228 141° Southeast 288 331 11,600 -1,210 Descending Los Angeles Center
Fri 11:20:17 PM 34.0264 -118.6286 96° East 267 307 10,500 -732 Descending Los Angeles Center
Fri 11:21:18 PM 34.0200 -118.5647 97° East 253 291 10,100 -1,024 Descending Los Angeles Center
Fri 11:22:20 PM 34.0106 -118.4722 97° East 229 264 8,400 -1,548 Descending Los Angeles Center
Fri 11:23:22 PM 34.0161 -118.3986 85° East 229 264 6,900 -1,355 Descending Los Angeles Center
Fri 11:24:24 PM 34.0236 -118.3278 83° East 219 252 5,600 -1,610 Descending Los Angeles Center
Fri 11:25:25 PM 34.0122 -118.2742 104° East 196 226 3,600 -1,659 Descending Los Angeles Center
Fri 11:26:27 PM 33.9653 -118.2864 192° South 193 222 2,200 -1,258 Descending Los Angeles Center
Fri 11:27:29 PM 33.9583 -118.3469 262° West 165 190 1,000 -919 Descending Los Angeles Center
Fri 11:28:31 PM 33.9542 -118.3919 264° West 149 171 300 -677 Descending Los Angeles Center
Fri 11:30:00 PM 33.9333 -118.4000 228° Southwest  Level FlightAware Approximate
Fri 11:37:00 PM 33.9425 -118.4081 228° Southwest  Level Estimated

Login

Don't have an account? Register now (free) for customized features, flight alerts, and more!